Location: Brown Observing Site
(43.4354°N, 116.3366°W)
Time: 16:59:32
(UTC-07:00)

Envisat - Pass Details

Date: 23 October 2019
Orbit: 764 x 766 km, 98.1° (Epoch: 21 November)

Event Time Altitude Azimuth Distance (km) Brightness Sun altitude
Rises 19:38:04 0° 162° (SSE) 3,218 6.1 -9.5°
Reaches altitude 10° 19:40:21 10° 161° (SSE) 2,296 5.3 -9.9°
Maximum altitude 19:45:25 79° 75° (ENE) 783 2.9 -10.8°
Drops below altitude 10° 19:50:31 10° 349° (N) 2,311 5.6 -11.7°
Sets 19:52:50 0° 349° (NNW) 3,242 6.3 -12.1°
